Location: Hac?musa Deresi
(39.1694°N, 32.2508°E)
Time: 23:28:54
(UTC+00:00)

Cosmos 2239 Rocket - Pass Details

Date: 22 April 2026
Orbit: 954 x 989 km, 82.9° (Epoch: 9 May)

Event Time Altitude Azimuth Distance (km) Brightness Sun altitude
Rises 17:46:09 0° 174° (S) 3,625 7.2 -13.5°
Reaches altitude 10° 17:48:39 10° 171° (S) 2,687 6.5 -13.9°
Maximum altitude 17:54:41 61° 93° (E) 1,093 4.5 -14.9°
Drops below altitude 10° 18:00:48 10° 14° (NNE) 2,727 7.1 -16.0°
Sets 18:03:22 0° 11° (NNE) 3,683 7.8 -16.4°
